Downstream station:
SHEF ID: NLRO2 Little River blw Lk Thunderbird
STATION TYPE:
STAGE RIV-FLOW BAT-LOAD
ft cfs volt
Ccp-Rev Ccp-Rev Ccp-Rev
(US/Central)
10/13 00:00 3.06 1 12.89
10/13 01:00 3.05 1 12.89
10/13 02:00 3.05 1 12.89
10/13 03:00 3.05 1 12.89
10/13 04:00 3.05 1 12.81
10/13 05:00 3.06 1 12.81
10/13 06:00 3.05 1 12.81
10/13 07:00 3.09 2 12.81
10/13 08:00 3.17 3 12.73
10/13 09:00 3.17 3 12.73
10/13 10:00 3.15 2 12.81
10/13 11:00 3.12 2 13.37
10/13 12:00 3.10 2 13.60
10/13 13:00 3.08 1 13.60
10/13 14:00 3.07 1 13.76
10/13 15:00 3.07 1 13.44
10/13 16:00 3.06 1 13.37
10/13 17:00 3.06 1 13.29
10/13 18:00 3.05 1 13.29
10/13 19:00 3.06 1 13.13
10/13 20:00 3.05 1 12.97
10/13 21:00 3.06 1 12.97
10/13 22:00 3.06 1 12.89
10/13 23:00 3.06 1 12.89